Simultaneous Nadir Overpasses (SNOs) Predictions

Prediction of SNOs between METOP-B and TERRA Satellite Orbit:

Table of predicted SNOs for the next 14.0 days since TLE Epoch: 7/8/2013
Index Date (METOP-B) Time (METOP-B) Lat,Lon (METOP-B) SZA (METOP-B ) Date (TERRA) Time (TERRA) Lat,Lon (TERRA) SZA (TERRA ) Distance(km) Time Diff (sec)
1 07/09/2013 10:10:00 -81.29,-105.73 118.29 07/09/2013 10:10:58 -81.30,-105.57 118.24 2.83 58
2 07/09/2013 11:00:39 81.30, 62.30 61.80 07/09/2013 11:00:24 81.31, 62.16 61.78 2.32 15
3 07/12/2013 05:44:22 -81.29, -39.41 117.95 07/12/2013 05:45:11 -81.29, -39.23 117.90 2.99 49
4 07/12/2013 06:35:01 81.30, 128.56 62.14 07/12/2013 06:34:37 81.30, 128.47 62.11 1.57 24
5 07/15/2013 01:18:43 -81.30, 27.26 117.51 07/15/2013 01:19:23 -81.30, 27.36 117.48 1.79 40
6 07/1
